DateTime,F1_A11,F1_S11,BsB_S11,BsG_S11,BsR_S11,BbsB_S11,BbsG_S11,BbsR_S11,BaB_A11,BaG_A11,BaR_A11,T_S11,U_S11,P_S11,T1_A11
2016-07-20T00:00:00Z,0000382,20000602,,,,,,,,,,27.2,02.9,0673.0,34.6
2016-07-20T00:01:00Z,0000382,20000602,,,,,,,,,,27.2,02.7,0673.0,34.6
2016-07-20T00:02:00Z,0000382,20000602,,,,,,,,,,27.2,02.7,0673.0,34.6
2016-07-20T00:03:00Z,0000382,60000602,,,,,,,,,,27.2,02.7,0673.0,34.6
2016-07-20T00:04:00Z,0000382,40000602,-000.81,-000.09,0000.71,0000.05,-000.34,0000.38,0000.14,0000.01,0000.02,27.3,02.7,0674.0,34.6
2016-07-20T00:05:00Z,0000382,00000602,0001.76,0000.79,0001.20,0000.14,-000.05,0000.39,0000.21,0000.29,0000.24,27.2,02.7,0674.0,34.6
2016-07-20T00:06:00Z,0000382,00000602,-000.54,0000.00,0000.05,-000.25,-000.56,0000.49,0000.18,0000.02,0000.17,27.2,02.7,0674.0,34.6
2016-07-20T00:07:00Z,0000382,00000602,-000.63,-000.21,0000.13,0000.31,-000.19,0000.11,-000.43,-000.07,-000.20,27.2,02.7,0674.0,34.6
2016-07-20T00:08:00Z,0000382,00000602,0000.53,-000.03,0000.46,-000.03,-000.36,0000.17,0000.25,0000.07,0000.15,27.2,02.6,0674.0,34.6
2016-07-20T00:09:00Z,0000382,00000602,-000.27,0000.46,0001.44,-000.13,0000.09,0000.24,0000.40,0000.27,0000.34,27.2,02.8,0674.0,34.6
2016-07-20T00:10:00Z,0000382,00000602,0000.65,0000.52,0000.47,-000.61,0000.09,-000.13,0000.16,0000.13,-000.09,27.2,02.7,0674.0,34.6
2016-07-20T00:11:00Z,0000382,00000602,-000.08,0002.24,0001.81,-000.25,-000.22,0000.06,0000.53,0000.54,0000.31,27.2,02.8,0674.0,34.6
2016-07-20T00:12:00Z,0000382,00000602,-000.10,0000.32,-000.11,0000.55,0000.13,0000.03,0000.01,-000.09,-000.02,27.1,02.7,0674.0,34.6
2016-07-20T00:13:00Z,0000382,00000602,0000.64,-000.04,-000.28,-000.02,-000.27,-000.17,-000.02,0000.06,0000.10,27.1,02.6,0674.0,34.6
2016-07-20T00:14:00Z,0000382,00000602,-000.38,-000.41,0000.81,-000.46,0000.06,0000.52,-000.06,-000.03,-000.12,27.1,02.6,0674.0,34.6
2016-07-20T00:15:00Z,0000382,00000602,-000.49,0000.07,0000.48,0000.05,-000.28,0000.30,0000.10,0000.05,0000.10,27.1,02.6,0674.0,34.6
2016-07-20T00:16:00Z,0000382,00000602,-000.91,-000.19,-000.34,-000.09,0000.00,0000.22,-000.15,-000.01,-000.11,27.1,02.6,0674.0,34.6
2016-07-20T00:17:00Z,0000382,00000602,0000.55,0000.07,-000.08,-000.63,-000.38,-000.17,-000.00,0000.02,0000.14,27.1,02.6,0674.0,34.6
2016-07-20T00:18:00Z,0000382,00000602,-000.67,-000.46,0000.12,-000.11,-000.06,0000.20,0000.04,-000.07,-000.23,27.2,02.6,0673.9,34.6
2016-07-20T00:19:00Z,0000382,00000602,0000.29,-000.32,0000.10,0000.38,-000.13,0000.30,-000.03,0000.03,0000.26,27.2,02.6,0673.9,34.6
2016-07-20T00:20:00Z,0000382,00000602,-000.13,0000.02,0000.07,-000.27,-000.58,0000.11,0000.13,0000.12,0000.09,27.2,02.6,0673.9,34.6
2016-07-20T00:21:00Z,0000382,00000602,0000.14,0000.14,0000.43,-000.13,-000.27,0000.22,0000.20,0000.18,0000.03,27.2,02.6,0673.9,34.6
2016-07-20T00:22:00Z,0000382,00000602,0000.00,-000.14,0000.07,0000.71,-000.16,0000.35,0000.13,0000.07,0000.14,27.1,02.6,0673.9,34.6
2016-07-20T00:23:00Z,0000382,00000602,-000.09,-000.48,-000.17,-000.06,-000.03,0000.02,0000.01,0000.01,-000.15,27.2,02.7,0673.9,34.6
2016-07-20T00:24:00Z,0000382,00000602,-001.01,0000.16,0000.07,0000.05,-000.05,-000.09,0000.03,0000.10,-000.01,27.2,02.6,0673.9,34.6
2016-07-20T00:25:00Z,0000382,00000602,0000.43,-000.12,-000.07,-000.05,0000.25,-000.03,0000.06,-000.11,0000.19,27.1,02.6,0673.9,34.6
2016-07-20T00:26:00Z,0000382,00000602,0000.25,0000.16,0000.19,0000.33,0000.05,0000.22,-000.07,0000.08,0000.02,27.2,02.6,0674.0,34.6
2016-07-20T00:27:00Z,0000382,00000602,-000.50,0000.13,0000.81,-000.20,-000.39,0000.11,0000.12,0000.06,-000.22,27.1,02.6,0674.0,34.6
2016-07-20T00:28:00Z,0000382,00000602,0000.43,-000.34,0000.12,-000.41,-000.49,0000.31,-000.03,-000.05,0000.29,27.1,02.6,0674.1,34.6
2016-07-20T00:29:00Z,0000382,00000602,-000.73,0000.86,0000.49,0000.11,-000.19,0000.33,0000.06,-000.13,-000.21,27.1,02.5,0674.1,34.6
2016-07-20T00:30:00Z,0000382,00000602,-000.05,-000.09,0000.83,0000.36,-000.09,0000.35,-000.03,0000.10,0000.01,27.1,02.5,0674.2,34.5
2016-07-20T00:31:00Z,0000382,00000602,-000.61,-000.27,-000.14,-000.17,0000.11,0000.09,0000.06,0000.03,-000.12,27.1,02.5,0674.1,34.5
2016-07-20T00:32:00Z,0000382,00000602,-000.14,-000.16,-000.09,-000.02,0000.05,0000.25,-000.03,-000.01,0000.30,27.1,02.6,0674.1,34.5
2016-07-20T00:33:00Z,0000382,00000602,0000.86,0000.46,0000.00,-000.06,-000.08,0000.14,0000.45,0000.34,0000.07,27.1,02.6,0674.1,34.5
2016-07-20T00:34:00Z,0000382,00000602,0000.74,-000.31,-000.12,-000.53,-000.16,-000.09,-000.17,-000.00,0000.17,27.1,02.7,0674.1,34.5
2016-07-20T00:35:00Z,0000382,00000602,-000.58,-000.90,0000.41,-000.02,-000.36,0000.20,0000.09,0000.05,0000.00,27.1,02.6,0674.1,34.5
2016-07-20T00:36:00Z,0000382,00000602,0000.06,0000.06,-000.18,0000.33,-000.05,0000.00,0000.07,0000.02,-000.13,27.1,02.6,0674.1,34.5
2016-07-20T00:37:00Z,0000382,00000602,0000.09,-000.22,0001.38,-000.30,-000.05,0000.33,0000.04,-000.05,0000.02,27.1,02.6,0674.1,34.5
2016-07-20T00:38:00Z,0000382,00000602,0000.46,-000.36,0000.08,-000.09,0000.02,-000.35,-000.02,-000.07,0000.09,27.1,02.7,0674.1,34.5
2016-07-20T00:39:00Z,0000382,00000602,0000.01,0000.78,0001.08,0000.13,0000.02,0000.11,-000.01,0000.13,0000.08,27.1,02.5,0674.0,34.5
2016-07-20T00:40:00Z,0000382,00000602,0000.37,-000.02,-000.07,0000.33,-000.03,0000.16,0000.18,0000.13,-000.14,27.0,02.6,0674.0,34.5
2016-07-20T00:41:00Z,0000382,00000602,-001.08,-000.07,0000.05,0000.20,-000.52,0000.16,-000.00,0000.17,-000.08,27.0,02.4,0674.0,34.5
2016-07-20T00:42:00Z,0000382,00000602,0000.23,0000.04,0000.83,0000.60,-000.16,0000.24,0000.08,-000.21,0000.05,27.1,02.4,0674.0,34.5
2016-07-20T00:43:00Z,0000382,00000602,-000.14,-000.04,0000.26,-000.28,0000.08,-000.57,0000.01,0000.16,0000.22,27.1,02.4,0674.0,34.5
2016-07-20T00:44:00Z,0000382,00000602,-000.93,0000.06,0000.44,-000.33,-000.39,0000.25,-000.06,0000.02,0000.15,27.1,02.4,0674.0,34.5
2016-07-20T00:45:00Z,0000382,00000602,-000.76,-000.04,-000.12,-000.19,0000.16,0000.09,0000.10,-000.00,-000.04,27.1,02.4,0674.0,34.6
2016-07-20T00:46:00Z,0000382,00000602,0000.89,-000.48,0000.00,0000.30,-000.08,-000.08,0000.03,0000.07,0000.38,27.1,02.4,0674.0,34.6
2016-07-20T00:47:00Z,0000382,00000602,-000.65,-000.44,-000.09,-000.11,-000.31,0000.11,0000.01,-000.01,-000.48,27.1,02.3,0674.0,34.6
2016-07-20T00:48:00Z,0000382,00000602,-000.58,-000.94,0000.31,0000.24,-000.55,0000.09,0000.13,0000.05,0000.35,27.1,02.3,0673.9,34.6
2016-07-20T00:49:00Z,0000382,00000602,0000.24,-000.11,-000.03,-000.19,0000.09,-000.08,0000.05,0000.00,-000.05,27.1,02.2,0673.9,34.6
2016-07-20T00:50:00Z,0000382,00000602,0000.78,0000.77,0000.65,0000.16,0000.22,0000.20,0000.12,0000.13,-000.18,27.1,02.2,0674.0,34.6
2016-07-20T00:51:00Z,0000382,00000602,-000.21,-000.35,0000.07,0000.33,-000.06,0000.22,-000.13,-000.06,0000.11,27.1,02.2,0673.9,34.6
2016-07-20T00:52:00Z,0000382,00000602,0001.00,-000.27,-000.10,0000.20,0000.09,-000.17,0000.07,0000.03,0000.15,27.1,02.2,0673.9,34.6
2016-07-20T00:53:00Z,0000382,00000602,-000.07,-000.26,-000.03,0000.13,-000.02,0000.03,-000.01,0000.05,0000.13,27.2,02.2,0673.9,34.6
2016-07-20T00:54:00Z,0000382,00000602,-000.28,-000.20,0000.27,0000.31,-000.25,-000.09,0000.12,0000.14,-000.15,27.1,02.2,0673.9,34.6
2016-07-20T00:55:00Z,0000382,00000602,0000.02,-000.26,0000.12,0000.53,-000.25,-000.11,0000.06,-000.17,-000.05,27.2,02.1,0673.9,34.6
2016-07-20T00:56:00Z,0000382,00000602,-000.14,-000.96,0000.14,0000.05,0000.06,0000.22,-000.05,0000.07,0000.11,27.2,02.1,0673.9,34.6
2016-07-20T00:57:00Z,0000382,40000602,,,,,,,,,,,,0674.0,34.6
2016-07-20T00:58:00Z,0000382,60000602,,,,,,,,,,27.0,02.3,0672.8,34.6
2016-07-20T00:59:00Z,0000382,20000602,,,,,,,,,,27.0,02.2,0672.8,34.6
2016-07-20T01:00:00Z,0000382,20000602,,,,,,,,,,27.0,02.2,0672.8,34.6
2016-07-20T01:01:00Z,0000382,20000602,,,,,,,,,,27.0,02.2,0672.8,34.6
2016-07-20T01:02:00Z,0000382,20000602,,,,,,,,,,27.0,02.0,0672.8,34.6
2016-07-20T01:03:00Z,0000382,60000602,,,,,,,,,,27.1,02.0,0672.8,34.6
2016-07-20T01:04:00Z,0000382,40000602,0000.24,-000.11,-000.14,0000.19,-000.03,-000.06,-000.05,0000.18,-000.14,27.2,01.9,0673.7,34.6
2016-07-20T01:05:00Z,0000382,00000602,-000.33,-000.64,0000.21,0000.06,-000.06,0000.05,0000.05,-000.12,0000.20,27.3,01.9,0673.9,34.6
2016-07-20T01:06:00Z,0000382,00000602,0000.93,-000.17,0000.79,-000.06,0000.06,-000.03,0000.15,0000.10,-000.09,27.2,01.9,0673.9,34.6
2016-07-20T01:07:00Z,0000382,00000602,0000.08,-000.15,0000.16,0000.42,-000.14,-000.05,-000.15,0000.07,-000.11,27.3,01.9,0673.8,34.6
2016-07-20T01:08:00Z,0000382,00000602,0000.11,-000.73,-000.04,0000.31,-000.17,0000.03,0000.14,-000.07,0000.05,27.3,01.8,0673.8,34.6
2016-07-20T01:09:00Z,0000382,00000602,0000.08,-000.27,0000.47,0000.05,-000.44,0000.33,0000.13,-000.06,0000.13,27.3,01.8,0673.8,34.6
2016-07-20T01:10:00Z,0000382,00000602,0000.39,0000.15,0000.37,0000.49,-000.08,0000.06,-000.17,0000.12,-000.04,27.3,01.8,0673.8,34.6
2016-07-20T01:11:00Z,0000382,00000602,0000.60,-000.22,0000.16,-000.02,0000.08,-000.22,0000.12,0000.16,0000.17,27.3,01.9,0673.8,34.6
2016-07-20T01:12:00Z,0000382,00000602,0000.68,0000.07,-000.09,-000.19,-000.14,-000.27,-000.13,-000.14,-000.17,27.3,01.8,0673.9,34.6
2016-07-20T01:13:00Z,0000382,00000602,0000.32,0000.37,0001.66,0000.05,0000.50,-000.02,0000.00,0000.17,-000.04,27.3,01.8,0673.9,34.6
2016-07-20T01:14:00Z,0000382,00000602,0000.46,-000.54,0000.18,-000.19,0000.02,-000.11,0000.25,-000.06,0000.39,27.2,01.6,0673.9,34.6
2016-07-20T01:15:00Z,0000382,00000602,0000.35,0000.15,0000.94,-000.42,0000.89,0000.19,0000.04,0000.23,-000.05,27.2,01.6,0673.9,34.6
2016-07-20T01:16:00Z,0000382,00000602,0001.50,-000.51,0000.32,0000.11,0000.34,0000.19,0000.09,-000.12,-000.13,27.2,01.6,0673.9,34.6
2016-07-20T01:17:00Z,0000382,00000602,0001.18,0000.14,0000.28,-000.11,0000.13,0000.30,0000.04,0000.08,0000.04,27.2,01.6,0673.9,34.6
2016-07-20T01:18:00Z,0000382,00000602,0000.08,0000.27,0000.75,-000.22,-000.17,-000.20,0000.15,0000.27,0000.29,27.2,01.5,0673.8,34.6
2016-07-20T01:19:00Z,0000382,00000602,0000.39,0000.31,-000.11,-000.44,0000.19,-000.02,0000.15,-000.05,-000.28,27.2,01.6,0673.8,34.6
2016-07-20T01:20:00Z,0000382,00000602,0001.01,-000.61,0000.41,-000.17,0000.08,0000.30,-000.07,0000.02,0000.38,27.2,01.6,0673.9,34.6
2016-07-20T01:21:00Z,0000382,00000602,-000.11,-000.59,0000.21,0000.14,-000.11,0000.00,0000.07,0000.15,-000.14,27.2,01.7,0673.8,34.6
2016-07-20T01:22:00Z,0000382,00000602,0000.92,-000.14,0000.02,-000.17,0000.17,0000.00,-000.08,0000.02,-000.18,27.2,01.6,0673.8,34.6
2016-07-20T01:23:00Z,0000382,00000602,0001.13,-000.51,-000.10,0000.57,-000.42,-000.09,-000.00,-000.26,0000.21,27.2,01.6,0673.8,34.6
2016-07-20T01:24:00Z,0000382,00000602,0000.86,-000.36,0000.31,-000.20,0000.31,0000.20,-000.04,0000.30,-000.11,27.2,01.6,0673.8,34.6
2016-07-20T01:25:00Z,0000382,00000602,0001.14,-000.58,0000.58,0000.00,0000.22,0000.06,0000.02,-000.14,0000.11,27.2,01.5,0673.7,34.6
2016-07-20T01:26:00Z,0000382,00000602,-000.03,-000.36,-000.23,-000.39,0000.38,-000.06,0000.11,0000.19,-000.01,27.2,01.6,0673.8,34.6
2016-07-20T01:27:00Z,0000382,00000602,0000.71,-000.21,-000.09,0000.09,0000.08,-000.20,0000.03,-000.18,0000.07,27.2,01.6,0673.8,34.6
2016-07-20T01:28:00Z,0000382,00000602,0000.46,-000.14,-000.11,0000.14,-000.09,-000.03,-000.02,0000.10,0000.06,27.2,01.6,0673.8,34.6
2016-07-20T01:29:00Z,0000382,00000602,0000.82,-000.53,0000.39,0000.30,0000.11,0000.08,-000.06,-000.04,0000.06,27.2,01.5,0673.8,34.6
2016-07-20T01:30:00Z,0000382,00000602,0000.02,-000.91,0000.13,-000.08,0000.11,0000.06,0000.11,0000.06,-000.27,27.2,01.5,0673.8,34.6
2016-07-20T01:31:00Z,0000382,01000602,0000.57,-000.44,0000.29,0000.22,-000.09,0000.00,-000.10,-000.04,0000.19,27.2,01.4,0673.8,34.6
2016-07-20T01:32:00Z,0000382,01000602,-000.29,0000.64,0000.09,-000.36,-000.25,-000.35,0000.09,0000.03,0000.02,27.2,01.4,0673.8,34.6
2016-07-20T01:33:00Z,0000382,01000602,-000.04,-000.11,0000.24,-000.06,0000.09,0000.08,0000.30,0000.18,0000.23,27.2,01.3,0673.8,34.6
2016-07-20T01:34:00Z,0000382,01000602,0000.34,-000.55,-000.02,-000.02,-000.06,0000.08,-000.25,0000.09,-000.12,27.2,01.4,0673.8,34.6
2016-07-20T01:35:00Z,0000382,01000602,0007.79,0011.50,0015.77,0002.08,0001.86,0002.86,0003.28,0002.86,0002.15,27.2,01.5,0673.8,34.6
2016-07-20T01:36:00Z,0000382,00000602,0000.76,0000.46,0000.72,0000.60,-000.13,-000.13,0000.04,-000.11,-000.13,27.2,01.9,0673.8,34.6
2016-07-20T01:37:00Z,0000382,01000602,0001.24,0000.47,0000.35,0000.39,0000.25,0000.50,0000.28,0000.16,0000.29,27.2,01.4,0673.8,34.6
2016-07-20T01:38:00Z,0000382,01000602,-000.30,0000.22,0000.08,0000.27,-000.05,-000.46,0000.00,-000.06,-000.43,27.2,01.3,0673.8,34.6
2016-07-20T01:39:00Z,0000382,01000602,0000.58,-000.61,0000.28,0000.64,0000.05,-000.09,-000.09,0000.16,0000.60,27.2,01.2,0673.8,34.6
2016-07-20T01:40:00Z,0000382,01000602,0000.57,0000.18,0000.60,-000.17,0000.19,-000.11,0000.43,0000.14,-000.20,27.1,01.2,0673.8,34.6
2016-07-20T01:41:00Z,0000382,01000602,-000.17,-000.38,0000.34,0000.25,0000.34,-000.13,-000.21,-000.04,-000.13,27.2,01.3,0673.8,34.6
2016-07-20T01:42:00Z,0000382,01000602,-000.26,-000.06,0000.11,-000.16,-000.31,-000.41,0000.04,-000.05,0000.03,27.2,01.2,0673.8,34.6
2016-07-20T01:43:00Z,0000382,01000602,-000.08,-000.67,-000.04,-000.36,-000.28,0000.00,0000.09,0000.06,0000.13,27.2,01.2,0673.8,34.6
2016-07-20T01:44:00Z,0000382,01000602,0001.16,0001.26,0002.21,-000.14,0000.25,0000.31,0000.39,0000.38,0000.31,27.2,01.3,0673.8,34.6
2016-07-20T01:45:00Z,0000382,01000602,0001.29,0000.61,0001.54,-000.47,0000.47,-000.28,0000.33,0000.26,0000.02,27.2,01.3,0673.8,34.6
2016-07-20T01:46:00Z,0000382,01000602,-000.02,0000.24,0000.23,0000.06,0000.30,-000.20,0000.02,0000.04,0000.22,27.1,01.3,0673.8,34.6
2016-07-20T01:47:00Z,0000382,01000602,0000.66,-000.59,0000.57,0000.06,0000.02,0000.25,-000.19,-000.05,-000.16,27.2,01.2,0673.8,34.6
2016-07-20T01:48:00Z,0000382,01000602,0000.36,-000.51,0000.05,0000.00,0000.02,0000.14,0000.18,-000.05,-000.27,27.2,01.2,0673.8,34.6
2016-07-20T01:49:00Z,0000382,01000602,0000.57,0000.05,-000.02,0000.22,-000.56,0000.08,0000.13,0000.11,0000.16,27.2,01.2,0673.8,34.6
2016-07-20T01:50:00Z,0000382,01000602,0000.85,-000.62,0000.21,0000.28,-000.03,-000.31,-000.32,0000.08,-000.01,27.2,01.2,0673.8,34.6
2016-07-20T01:51:00Z,0000382,01000602,-000.58,0000.44,0000.37,-000.08,0000.19,0000.05,0000.12,0000.03,0000.10,27.2,01.1,0673.9,34.6
2016-07-20T01:52:00Z,0000382,01000602,-000.06,-000.14,0000.17,0000.06,-000.28,0000.28,0000.08,0000.01,0000.05,27.2,01.2,0673.9,34.6
2016-07-20T01:53:00Z,0000382,01000602,-000.40,0000.95,0000.09,-000.05,0000.45,0000.00,-000.07,-000.05,0000.11,27.2,01.2,0673.9,34.6
2016-07-20T01:54:00Z,0000382,01000602,0000.68,-000.17,0000.08,0000.77,0000.16,-000.13,0000.15,0000.04,-000.30,27.2,01.2,0673.9,34.6
2016-07-20T01:55:00Z,0000382,01000602,0000.57,0000.36,0000.02,-000.13,-000.30,0000.00,0000.03,-000.03,0000.29,27.2,01.3,0673.9,34.6
2016-07-20T01:56:00Z,0000382,01000602,0000.18,-000.31,0000.43,0000.02,0000.39,-000.33,-000.23,-000.12,-000.11,27.2,01.2,0673.9,34.6
2016-07-20T01:57:00Z,0000382,40000602,,,,,,,,,,,,0674.0,34.6
2016-07-20T01:58:00Z,0000382,60000602,,,,,,,,,,27.2,01.4,0672.9,34.6
2016-07-20T01:59:00Z,0000382,20000602,,,,,,,,,,27.2,01.3,0672.8,34.6
2016-07-20T02:00:00Z,0000382,20000602,,,,,,,,,,27.2,01.3,0672.8,34.6
2016-07-20T02:01:00Z,0000382,20000602,,,,,,,,,,27.2,01.3,0672.8,34.6
2016-07-20T02:02:00Z,0000382,20000602,,,,,,,,,,27.2,01.3,0672.9,34.6
2016-07-20T02:03:00Z,0000382,60000602,,,,,,,,,,27.3,01.3,0672.9,34.6
2016-07-20T02:04:00Z,0000382,41000602,0000.20,0000.49,0000.71,0000.03,0000.05,0000.44,-000.21,-000.22,-000.23,27.3,01.2,0673.8,34.6
2016-07-20T02:05:00Z,0000382,01000602,0000.32,-000.81,-000.23,0000.33,0000.03,-000.19,0000.08,0000.09,0000.21,27.3,01.2,0673.9,34.6
2016-07-20T02:06:00Z,0000382,01000602,0000.60,0000.29,0000.42,-000.11,0000.11,0000.49,0000.12,-000.19,-000.07,27.3,01.1,0674.0,34.6
2016-07-20T02:07:00Z,0000382,01000602,0000.21,-000.17,0000.60,0000.53,0000.22,0000.19,-000.02,0000.06,-000.12,27.3,01.3,0674.0,34.6
2016-07-20T02:08:00Z,0000382,01000602,-000.01,0000.18,0000.33,0000.00,0000.03,0000.39,0000.09,0000.20,0000.14,27.3,01.2,0674.0,34.6
2016-07-20T02:09:00Z,0000382,01000602,0012.93,0014.86,0021.23,0002.44,0003.62,0004.85,0006.94,0006.07,0004.87,27.3,01.7,0674.0,34.6
2016-07-20T02:10:00Z,0000382,00000602,0000.51,0000.59,0000.47,0000.41,-000.16,0000.52,0000.09,0000.16,-000.17,27.3,02.5,0674.1,34.6
2016-07-20T02:11:00Z,0000382,00000602,0000.62,0000.22,0000.17,0000.22,-000.17,0000.38,0000.10,-000.02,-000.01,27.3,01.5,0674.1,34.6
2016-07-20T02:12:00Z,0000382,01000602,-000.16,0000.22,0000.04,-000.61,-000.17,0000.47,-000.05,-000.00,-000.17,27.3,01.4,0674.1,34.6
2016-07-20T02:13:00Z,0000382,01000602,0000.67,0000.67,0000.58,0000.55,-000.08,0000.16,0000.19,0000.10,0000.38,27.3,01.3,0674.1,34.6
2016-07-20T02:14:00Z,0000382,01000602,0000.19,-000.18,-000.06,-000.39,0000.38,0000.38,0000.18,0000.04,0000.10,27.3,01.3,0674.1,34.6
2016-07-20T02:15:00Z,0000382,01000602,0000.36,0000.12,0000.19,0000.47,0000.03,-000.14,-000.06,-000.10,-000.23,27.3,01.3,0674.1,34.6
2016-07-20T02:16:00Z,0000382,01000602,0001.04,0000.40,0000.42,-000.38,-000.34,-000.08,0000.02,0000.03,-000.06,27.3,01.2,0674.1,34.6
2016-07-20T02:17:00Z,0000382,01000602,-000.21,-000.31,0000.34,-000.17,-000.17,0000.38,-000.18,-000.08,0000.06,27.3,01.2,0674.1,34.6
2016-07-20T02:18:00Z,0000382,01000602,0000.04,0000.32,-000.53,-000.02,0000.11,0000.02,0000.21,0000.12,0000.05,27.3,01.2,0674.1,34.6
2016-07-20T02:19:00Z,0000382,01000602,-000.44,-000.08,0000.25,-000.05,0000.06,0000.27,-000.16,0000.01,-000.16,27.3,01.1,0674.1,34.6
2016-07-20T02:20:00Z,0000382,01000602,-000.54,0000.00,-000.08,0000.25,0000.17,0000.17,0000.09,0000.03,0000.06,27.3,01.1,0674.1,34.6
2016-07-20T02:21:00Z,0000382,01000602,0000.39,0000.36,0000.05,0000.41,0000.16,-000.02,0000.15,-000.03,0000.18,27.3,01.2,0674.1,34.6
2016-07-20T02:22:00Z,0000382,01000602,0000.44,0000.47,0000.34,-000.72,-000.19,0000.35,-000.10,0000.03,0000.08,27.3,01.2,0674.1,34.6
2016-07-20T02:23:00Z,0000382,01000602,-000.02,0000.18,0000.47,-000.41,0000.05,0000.47,-000.03,0000.10,-000.14,27.3,01.1,0674.1,34.6
2016-07-20T02:24:00Z,0000382,01000602,0000.15,0000.06,-000.28,0000.25,-000.25,0000.25,0000.18,-000.02,-000.04,27.3,01.2,0674.1,34.6
2016-07-20T02:25:00Z,0000382,01000602,0000.57,0000.21,0000.00,-000.30,-000.02,-000.27,-000.14,-000.06,-000.05,27.3,01.1,0674.1,34.6
2016-07-20T02:26:00Z,0000382,01010602,0000.00,0000.50,0000.97,0000.31,-000.42,0000.41,-000.03,0000.05,0000.06,27.3,01.1,0674.1,34.6
2016-07-20T02:27:00Z,0000382,01000602,0000.87,-000.06,0000.12,0000.09,-000.06,0000.11,0000.01,0000.17,0000.03,27.3,01.2,0674.1,34.6
2016-07-20T02:28:00Z,0000382,01000602,0000.47,0000.34,0000.09,-000.19,-000.05,0000.02,-000.12,-000.05,-000.09,27.3,01.2,0674.1,34.6
2016-07-20T02:29:00Z,0000382,01000602,-000.10,0000.51,-000.10,0000.31,0000.02,-000.20,0000.30,0000.13,0000.01,27.3,01.2,0674.1,34.6
2016-07-20T02:30:00Z,0000382,01000602,0000.31,-000.02,0000.34,0000.64,-000.30,-000.16,-000.04,0000.06,0000.27,27.3,01.2,0674.1,34.6
2016-07-20T02:31:00Z,0000382,01000602,0000.18,0000.06,0000.89,0000.25,0000.34,-000.09,0000.01,-000.18,0000.05,27.3,01.2,0674.1,34.6
2016-07-20T02:32:00Z,0000382,01000602,0000.25,-000.09,-000.10,0000.74,0000.02,0000.06,0000.02,-000.02,-000.15,27.3,01.1,0674.1,34.6
2016-07-20T02:33:00Z,0000382,01000602,0001.13,0000.27,0000.11,-001.08,0000.11,0000.06,-000.08,0000.06,-000.00,27.3,01.2,0674.1,34.6
2016-07-20T02:34:00Z,0000382,01000602,-000.03,0000.38,0000.36,0000.44,0000.20,0000.09,-000.05,0000.00,0000.12,27.3,01.2,0674.1,34.6
2016-07-20T02:35:00Z,0000382,01000602,0000.10,0000.14,-000.17,0000.35,0000.23,0000.02,0000.08,-000.01,-000.00,27.3,01.2,0674.1,34.6
2016-07-20T02:36:00Z,0000382,01000602,-000.20,-000.29,0000.70,0000.05,-000.13,0000.38,0000.06,-000.06,0000.03,27.3,01.1,0674.1,34.6
2016-07-20T02:37:00Z,0000382,01000602,0000.03,0000.00,-000.23,0000.05,-000.09,0000.31,-000.01,0000.06,-000.20,27.3,01.2,0674.1,34.6
2016-07-20T02:38:00Z,0000382,01000602,-001.04,0000.02,0000.28,0000.00,-000.06,0000.19,0000.11,0000.04,0000.11,27.3,01.1,0674.1,34.6
2016-07-20T02:39:00Z,0000382,01000602,0000.57,0000.23,0000.00,-000.09,0000.02,0000.33,-000.00,0000.03,0000.04,27.3,01.1,0674.1,34.6
2016-07-20T02:40:00Z,0000382,01000602,-000.24,0000.43,0000.43,-000.50,0000.44,-000.08,-000.15,0000.05,-000.04,27.3,01.2,0674.1,34.6
2016-07-20T02:41:00Z,0000382,01000602,0000.39,0000.93,0001.26,-000.20,0000.05,0000.58,0000.21,-000.03,0000.21,27.3,01.1,0674.1,34.6
2016-07-20T02:42:00Z,0000382,01000602,0003.72,0003.70,0004.10,-000.20,0000.74,0000.76,0001.03,0000.85,0000.68,27.3,01.4,0674.1,34.6
2016-07-20T02:43:00Z,0000382,01000602,-000.67,0000.02,-000.09,-000.22,-000.44,0000.20,0000.14,-000.03,-000.13,27.3,01.1,0674.2,34.6
2016-07-20T02:44:00Z,0000382,01000602,0000.92,-000.06,0000.60,0000.71,0000.02,0000.14,-000.09,0000.13,0000.19,27.3,01.1,0674.1,34.6
2016-07-20T02:45:00Z,0000382,01000602,0001.00,0000.15,0000.71,-000.72,-000.08,0000.17,-000.01,0000.13,-000.02,27.3,01.1,0674.2,34.6
2016-07-20T02:46:00Z,0000382,01000602,-000.07,0000.39,0000.15,0000.14,-000.02,0000.02,0000.06,-000.08,-000.15,27.3,01.1,0674.2,34.6
2016-07-20T02:47:00Z,0000382,01000602,0000.67,0000.17,0000.53,-000.31,0000.20,0000.08,-000.06,-000.04,-000.03,27.3,01.1,0674.2,34.6
2016-07-20T02:48:00Z,0000382,01000602,-000.11,-000.08,-000.16,-000.47,-000.11,-000.06,0000.13,-000.00,-000.17,27.3,01.0,0674.1,34.6
2016-07-20T02:49:00Z,0000382,01000602,0000.82,0000.21,-000.25,-000.53,-000.14,0000.27,-000.02,-000.02,0000.10,27.3,01.0,0674.1,34.6
2016-07-20T02:50:00Z,0000382,01000602,-000.05,-000.03,-000.09,0000.53,0000.14,0000.30,0000.06,0000.12,0000.12,27.3,01.1,0674.1,34.6
2016-07-20T02:51:00Z,0000382,01000602,0000.61,0000.22,0000.56,-000.20,0000.23,0000.13,-000.16,-000.06,-000.15,27.3,01.1,0674.1,34.6
2016-07-20T02:52:00Z,0000382,01000602,0000.14,-000.40,0000.44,-000.03,-000.20,0000.16,0000.12,0000.06,0000.27,27.3,01.2,0674.2,34.6
2016-07-20T02:53:00Z,0000382,01000602,0000.52,-000.12,0000.07,-000.39,0000.00,0000.27,-000.10,-000.06,-000.12,27.3,01.1,0674.2,34.6
2016-07-20T02:54:00Z,0000382,01000602,-000.22,-000.16,0000.07,0000.63,-000.42,0000.03,-000.03,-000.01,-000.25,27.3,01.1,0674.2,34.6
2016-07-20T02:55:00Z,0000382,01000602,0000.41,0000.37,-000.04,0000.80,0000.03,0000.36,0000.10,0000.05,0000.54,27.3,01.2,0674.1,34.6
2016-07-20T02:56:00Z,0000382,01000602,0000.31,0000.15,-000.13,-000.22,-000.16,0000.11,0000.01,0000.09,-000.20,27.3,01.2,0674.2,34.6
2016-07-20T02:57:00Z,0000382,41000602,,,,,,,,,,,,0674.3,34.6
2016-07-20T02:58:00Z,0000382,61000602,,,,,,,,,,27.2,01.2,0673.2,34.6
2016-07-20T02:59:00Z,0000382,20000602,,,,,,,,,,27.3,01.1,0673.1,34.6
2016-07-20T03:00:00Z,0000382,20000602,,,,,,,,,,27.3,01.1,0673.1,34.6
2016-07-20T03:01:00Z,0000382,20000602,,,,,,,,,,27.3,01.1,0673.1,34.6
2016-07-20T03:02:00Z,0000382,20000602,,,,,,,,,,27.3,01.1,0673.1,34.6
2016-07-20T03:03:00Z,0000382,60000602,,,,,,,,,,27.3,01.1,0673.1,34.6
2016-07-20T03:04:00Z,0000382,41000602,-000.47,-000.69,0000.57,-000.53,-000.33,-000.11,-000.02,-000.01,0000.14,27.3,01.3,0674.0,34.6
2016-07-20T03:05:00Z,0000382,01000602,-000.69,0000.41,0000.00,-000.63,-000.31,-000.19,-000.19,-000.11,-000.18,27.3,01.3,0674.1,34.6
2016-07-20T03:06:00Z,0000382,01000602,-000.56,0000.09,0000.09,-000.53,0000.06,-000.02,0000.17,0000.24,0000.18,27.3,01.3,0674.1,34.6
2016-07-20T03:07:00Z,0000382,00000602,-000.18,0000.09,-000.07,0000.36,-000.14,-000.30,-000.02,-000.09,-000.06,27.3,01.4,0674.1,34.6
2016-07-20T03:08:00Z,0000382,01000602,-000.36,0000.00,0000.12,-000.09,0000.17,-000.46,0000.03,-000.03,0000.05,27.3,01.4,0674.1,34.6
2016-07-20T03:09:00Z,0000382,01000602,0000.04,-000.51,0000.17,-000.02,-000.16,-000.19,-000.02,0000.01,-000.20,27.3,01.4,0674.1,34.6
2016-07-20T03:10:00Z,0000382,01000602,-000.51,-000.59,0000.00,-000.17,0000.36,-000.41,0000.17,0000.01,0000.06,27.3,01.5,0674.1,34.6
2016-07-20T03:11:00Z,0000382,00000602,-000.60,0000.37,-000.14,0000.35,0000.06,0000.02,-000.17,0000.02,0000.25,27.3,01.4,0674.1,34.6
2016-07-20T03:12:00Z,0000382,00000602,0000.16,-000.34,0000.07,-000.13,0000.09,0000.03,0000.23,0000.12,-000.28,27.3,01.4,0674.1,34.6